QPF
0.01 0.04 0.07 0.06 0.04 0.02 0.01 0.01 0.01 0.01 0.01 0.02 0.02 0.02 0.01 0.00 0.00 0.00 0.01 0.01 0.00 0.00 0.00 0.00 0.00 0.00 0.00 0.00 0.00 0.00 0.00 0.00 0.00 0.00 0.00 0.00 0.00 0.00 0.00 0.00 0.00 0.00 0.00 0.00
0.01 0.02 0.04 0.05 0.03 0.02 0.01 0.01 0.01 0.01 0.01 0.03 0.03 0.03 0.02 0.01 0.00 0.00 0.00 0.00 0.00 0.00 0.00 0.00 0.00 0.00 0.00 0.00 0.00 0.00 0.00 0.00 0.00 0.00 0.00 0.00 0.00 0.00 0.00 0.00 0.00 0.00 0.00 0.00
0.03 0.01 0.02 0.02 0.01 0.01 0.01 0.01 0.00 0.00 0.01 0.02 0.01 0.01 0.02 0.01 0.00 0.00 0.00 0.00 0.00 0.00 0.00 0.00 0.00 0.00 0.00 0.00 0.00 0.00 0.00 0.00 0.00 0.00 0.00 0.00 0.00 0.00 0.00 0.00 0.00 0.00 0.00 0.00
0.05 0.05 0.06 0.01 0.01 0.01 0.01 0.00 0.00 0.00 0.01 0.01 0.02 0.01 0.01 0.00 0.00 0.01 0.00 0.00 0.00 0.00 0.00 0.00 0.00 0.00 0.00 0.00 0.00 0.00 0.00 0.00 0.00 0.00 0.01 0.00 0.00 0.00 0.00 0.00 0.00 0.00 0.00 0.00
0.08 0.10 0.05 0.03 0.02 0.01 0.01 0.01 0.00 0.00 0.01 0.01 0.01 0.01 0.00 0.00 0.01 0.01 0.00 0.00 0.00 0.00 0.00 0.00 0.00 0.00 0.00 0.00 0.00 0.00 0.00 0.00 0.00 0.00 0.01 0.01 0.00 0.00 0.00 0.00 0.00 0.00 0.00 0.00
0.13 0.13 0.10 0.06 0.05 0.05 0.05 0.06 0.01 0.00 0.00 0.00 0.00 0.01 0.01 0.00 0.00 0.00 0.00 0.00 0.00 0.00 0.00 0.00 0.00 0.00 0.00 0.00 0.00 0.00 0.00 0.00 0.00 0.00 0.00 0.00 0.00 0.00 0.00 0.00 0.00 0.00 0.00 0.00
0.14 0.17 0.11 0.07 0.08 0.07 0.10 0.12 0.03 0.00 0.00 0.00 0.00 0.01 0.00 0.00 0.00 0.00 0.00 0.00 0.00 0.00 0.00 0.00 0.00 0.00 0.00 0.00 0.00 0.00 0.00 0.00 0.00 0.00 0.00 0.00 0.00 0.00 0.00 0.00 0.00 0.00 0.00 0.00
0.20 0.21 0.17 0.10 0.10 0.13 0.12 0.06 0.02 0.01 0.00 0.00 0.00 0.00 0.00 0.00 0.00 0.00 0.00 0.00 0.00 0.00 0.00 0.00 0.00 0.00 0.00 0.00 0.00 0.01 0.01 0.01 0.01 0.01 0.00 0.00 0.00 0.01 0.00 0.00 0.00 0.00 0.01 0.01
0.20 0.18 0.13 0.13 0.14 0.13 0.06 0.03 0.01 0.00 0.00 0.00 0.00 0.00 0.00 0.00 0.00 0.00 0.01 0.00 0.00 0.00 0.01 0.02 0.02 0.01 0.01 0.01 0.01 0.01 0.01 0.01 0.02 0.02 0.01 0.01 0.00 0.00 0.01 0.01 0.01 0.01 0.01 0.01
0.23 0.17 0.15 0.10 0.05 0.06 0.05 0.03 0.02 0.01 0.00 0.00 0.00 0.00 0.00 0.00 0.00 0.00 0.00 0.00 0.00 0.00 0.01 0.01 0.01 0.01 0.01 0.01 0.01 0.01 0.01 0.01 0.01 0.01 0.01 0.01 0.01 0.00 0.01 0.01 0.02 0.02 0.01 0.01
0.17 0.18 0.21 0.15 0.06 0.03 0.04 0.03 0.02 0.00 0.00 0.00 0.00 0.00 0.00 0.00 0.00 0.00 0.00 0.00 0.00 0.01 0.01 0.01 0.01 0.01 0.01 0.01 0.01 0.01 0.01 0.02 0.02 0.01 0.01 0.01 0.01 0.01 0.02 0.02 0.01 0.01 0.01 0.00
0.13 0.12 0.14 0.15 0.08 0.04 0.02 0.01 0.01 0.00 0.00 0.00 0.00 0.00 0.00 0.00 0.00 0.00 0.00 0.00 0.01 0.02 0.02 0.02 0.02 0.02 0.02 0.02 0.02 0.01 0.01 0.01 0.01 0.00 0.01 0.01 0.02 0.02 0.02 0.02 0.01 0.01 0.00 0.00
0.10 0.07 0.08 0.07 0.06 0.04 0.02 0.02 0.01 0.01 0.00 0.00 0.00 0.00 0.00 0.00 0.00 0.00 0.02 0.02 0.02 0.01 0.01 0.01 0.01 0.01 0.01 0.01 0.02 0.03 0.03 0.02 0.02 0.02 0.02 0.02 0.02 0.03 0.03 0.03 0.03 0.02 0.02 0.01
0.05 0.07 0.08 0.04 0.05 0.05 0.02 0.01 0.01 0.01 0.01 0.01 0.00 0.00 0.00 0.00 0.00 0.00 0.02 0.03 0.02 0.01 0.00 0.01 0.01 0.01 0.02 0.02 0.03 0.03 0.03 0.02 0.02 0.02 0.02 0.02 0.02 0.03 0.03 0.03 0.03 0.02 0.02 0.01
0.03 0.03 0.07 0.06 0.04 0.03 0.02 0.02 0.03 0.01 0.01 0.00 0.00 0.00 0.01 0.01 0.00 0.01 0.01 0.01 0.01 0.01 0.01 0.01 0.01 0.01 0.01 0.02 0.02 0.02 0.02 0.02 0.02 0.02 0.02 0.02 0.02 0.02 0.02 0.02 0.01 0.01 0.00 0.01
0.04 0.03 0.03 0.04 0.03 0.02 0.01 0.02 0.03 0.01 0.01 0.00 0.00 0.01 0.01 0.01 0.01 0.01 0.00 0.01 0.01 0.01 0.02 0.01 0.01 0.02 0.02 0.02 0.02 0.03 0.03 0.04 0.04 0.03 0.02 0.02 0.02 0.02 0.01 0.01 0.01 0.01 0.00 0.00
0.08 0.08 0.09 0.07 0.04 0.03 0.02 0.03 0.02 0.01 0.00 0.00 0.01 0.01 0.01 0.01 0.01 0.01 0.01 0.01 0.01 0.01 0.01 0.02 0.02 0.02 0.03 0.03 0.03 0.04 0.04 0.05 0.04 0.03 0.02 0.02 0.02 0.01 0.01 0.01 0.01 0.01 0.00 0.00
0.07 0.07 0.08 0.08 0.06 0.07 0.08 0.07 0.03 0.02 0.01 0.01 0.01 0.01 0.01 0.01 0.01 0.01 0.01 0.01 0.01 0.02 0.02 0.03 0.03 0.03 0.04 0.04 0.04 0.04 0.04 0.04 0.03 0.02 0.02 0.02 0.02 0.01 0.01 0.01 0.01 0.01 0.01 0.01
0.06 0.06 0.06 0.06 0.06 0.08 0.08 0.04 0.02 0.01 0.01 0.01 0.01 0.02 0.03 0.03 0.04 0.04 0.03 0.03 0.02 0.02 0.01 0.02 0.02 0.01 0.01 0.01 0.01 0.01 0.01 0.01 0.01 0.02 0.02 0.02 0.02 0.02 0.01 0.01 0.01 0.01 0.01 0.01
0.05 0.05 0.04 0.03 0.03 0.04 0.05 0.02 0.01 0.01 0.01 0.03 0.02 0.02 0.02 0.03 0.03 0.03 0.02 0.01 0.01 0.01 0.00 0.00 0.00 0.00 0.00 0.00 0.00 0.00 0.00 0.00 0.00 0.00 0.00 0.00 0.00 0.00 0.00 0.00 0.00 0.00 0.00 0.00
0.05 0.03 0.02 0.02 0.02 0.02 0.02 0.02 0.02 0.01 0.01 0.02 0.02 0.02 0.03 0.03 0.02 0.02 0.02 0.02 0.02 0.01 0.00 0.00 0.00 0.00 0.00 0.00 0.00 0.00 0.00 0.00 0.00 0.01 0.01 0.01 0.01 0.00 0.00 0.00 0.00 0.00 0.00 0.00
0.03 0.03 0.02 0.02 0.02 0.02 0.01 0.01 0.01 0.01 0.01 0.01 0.01 0.01 0.01 0.01 0.01 0.01 0.01 0.01 0.00 0.00 0.00 0.00 0.00 0.00 0.00 0.00 0.00 0.01 0.01 0.01 0.01 0.01 0.01 0.02 0.02 0.02 0.01 0.01 0.01 0.01 0.01 0.02
0.02 0.01 0.01 0.01 0.01 0.01 0.01 0.00 0.00 0.00 0.00 0.00 0.00 0.01 0.01 0.01 0.01 0.01 0.01 0.00 0.00 0.00 0.00 0.00 0.00 0.00 0.00 0.00 0.01 0.01 0.01 0.01 0.02 0.02 0.02 0.02 0.02 0.03 0.03 0.03 0.03 0.03 0.03 0.03
0.03 0.02 0.01 0.01 0.00 0.00 0.01 0.01 0.01 0.01 0.01 0.01 0.01 0.01 0.01 0.01 0.01 0.01 0.01 0.01 0.00 0.00 0.00 0.00 0.00 0.00 0.00 0.00 0.01 0.02 0.02 0.02 0.02 0.02 0.03 0.03 0.03 0.03 0.03 0.03 0.02 0.02 0.02 0.02
0.02 0.02 0.02 0.02 0.01 0.01 0.01 0.01 0.01 0.01 0.01 0.02 0.02 0.02 0.01 0.01 0.01 0.00 0.00 0.01 0.00 0.00 0.00 0.00 0.00 0.00 0.00 0.00 0.01 0.02 0.02 0.02 0.02 0.02 0.01 0.01 0.01 0.01 0.01 0.01 0.01 0.02 0.02 0.02
0.01 0.01 0.01 0.01 0.01 0.01 0.02 0.01 0.01 0.01 0.01 0.01 0.01 0.01 0.01 0.01 0.01 0.01 0.01 0.00 0.00 0.00 0.00 0.00 0.00 0.00 0.00 0.01 0.00 0.00 0.00 0.01 0.01 0.01 0.01 0.01 0.01 0.00 0.00 0.00 0.01 0.01 0.01 0.01
0.01 0.01 0.01 0.00 0.00 0.00 0.01 0.01 0.02 0.02 0.02 0.02 0.01 0.01 0.01 0.01 0.01 0.01 0.01 0.01 0.00 0.00 0.00 0.00 0.00 0.00 0.00 0.01 0.01 0.01 0.01 0.01 0.01 0.01 0.01 0.01 0.01 0.01 0.01 0.01 0.01 0.01 0.01 0.01
MSLP
1005.87 1006.13 1006.33 1006.45 1006.47 1006.40 1006.22 1005.94 1005.55 1005.09 1004.57 1004.05 1003.56 1003.16 1002.90 1002.82 1002.93 1003.25 1003.75 1004.43 1005.23 1006.11 1007.02 1007.93 1008.80 1009.62 1010.37 1011.05 1011.65 1012.18 1012.65 1013.06 1013.42 1013.74 1014.01 1014.26 1014.49 1014.70 1014.91 1015.10 1015.29 1015.47 1015.63 1015.78
1005.98 1006.15 1006.20 1006.12 1005.91 1005.59 1005.18 1004.71 1004.22 1003.71 1003.24 1002.83 1002.51 1002.30 1002.22 1002.29 1002.52 1002.90 1003.41 1004.05 1004.79 1005.60 1006.45 1007.32 1008.18 1009.01 1009.80 1010.52 1011.18 1011.76 1012.26 1012.70 1013.07 1013.38 1013.65 1013.90 1014.12 1014.35 1014.57 1014.78 1015.00 1015.20 1015.38 1015.53
1006.06 1006.14 1006.05 1005.78 1005.37 1004.84 1004.24 1003.62 1003.03 1002.50 1002.07 1001.77 1001.60 1001.56 1001.66 1001.88 1002.21 1002.63 1003.15 1003.75 1004.42 1005.15 1005.93 1006.74 1007.57 1008.40 1009.22 1009.98 1010.69 1011.32 1011.87 1012.34 1012.72 1013.04 1013.31 1013.55 1013.77 1013.99 1014.21 1014.43 1014.65 1014.86 1015.05 1015.20
1006.13 1006.11 1005.89 1005.48 1004.89 1004.18 1003.43 1002.68 1002.02 1001.47 1001.09 1000.88 1000.84 1000.96 1001.20 1001.55 1001.96 1002.44 1002.96 1003.52 1004.13 1004.77 1005.47 1006.22 1007.01 1007.82 1008.64 1009.44 1010.20 1010.88 1011.48 1011.98 1012.40 1012.73 1013.00 1013.23 1013.44 1013.65 1013.85 1014.06 1014.27 1014.47 1014.65 1014.79
1006.19 1006.08 1005.75 1005.21 1004.48 1003.64 1002.76 1001.93 1001.20 1000.64 1000.29 1000.15 1000.22 1000.46 1000.82 1001.27 1001.77 1002.29 1002.81 1003.33 1003.88 1004.45 1005.07 1005.75 1006.49 1007.28 1008.09 1008.91 1009.70 1010.43 1011.07 1011.62 1012.06 1012.42 1012.70 1012.92 1013.12 1013.30 1013.48 1013.67 1013.86 1014.03 1014.19 1014.32
1006.23 1006.04 1005.62 1004.98 1004.16 1003.22 1002.26 1001.35 1000.58 1000.01 999.68 999.59 999.73 1000.06 1000.51 1001.05 1001.60 1002.16 1002.68 1003.19 1003.68 1004.19 1004.74 1005.35 1006.03 1006.77 1007.57 1008.39 1009.19 1009.95 1010.63 1011.22 1011.69 1012.07 1012.36 1012.59 1012.77 1012.93 1013.08 1013.24 1013.39 1013.55 1013.68 1013.79
1006.25 1005.98 1005.50 1004.80 1003.92 1002.93 1001.91 1000.96 1000.17 999.59 999.26 999.20 999.39 999.77 1000.29 1000.88 1001.48 1002.07 1002.60 1003.09 1003.54 1004.00 1004.48 1005.02 1005.64 1006.33 1007.08 1007.88 1008.68 1009.45 1010.15 1010.76 1011.26 1011.66 1011.96 1012.18 1012.35 1012.49 1012.62 1012.75 1012.87 1013.00 1013.11 1013.21
1006.21 1005.90 1005.38 1004.66 1003.76 1002.76 1001.74 1000.78 999.98 999.39 999.07 999.02 999.22 999.63 1000.18 1000.81 1001.45 1002.05 1002.60 1003.07 1003.50 1003.91 1004.33 1004.80 1005.35 1005.97 1006.66 1007.41 1008.18 1008.93 1009.62 1010.24 1010.75 1011.16 1011.46 1011.69 1011.85 1011.97 1012.07 1012.17 1012.27 1012.37 1012.47 1012.56
1006.08 1005.76 1005.25 1004.56 1003.70 1002.73 1001.75 1000.82 1000.03 999.45 999.13 999.07 999.28 999.69 1000.25 1000.89 1001.55 1002.17 1002.72 1003.20 1003.60 1003.97 1004.34 1004.74 1005.20 1005.74 1006.35 1007.02 1007.73 1008.43 1009.09 1009.68 1010.18 1010.58 1010.88 1011.10 1011.25 1011.36 1011.44 1011.51 1011.59 1011.67 1011.75 1011.84
1005.84 1005.54 1005.09 1004.48 1003.71 1002.83 1001.92 1001.06 1000.32 999.77 999.45 999.40 999.59 1000.00 1000.55 1001.19 1001.85 1002.47 1003.03 1003.50 1003.89 1004.23 1004.54 1004.87 1005.24 1005.68 1006.19 1006.76 1007.38 1008.00 1008.59 1009.14 1009.60 1009.98 1010.26 1010.46 1010.59 1010.67 1010.73 1010.77 1010.82 1010.88 1010.96 1011.04
1005.45 1005.23 1004.88 1004.39 1003.76 1003.03 1002.25 1001.49 1000.83 1000.33 1000.04 999.99 1000.18 1000.56 1001.09 1001.72 1002.37 1003.00 1003.56 1004.02 1004.40 1004.71 1004.97 1005.23 1005.52 1005.85 1006.24 1006.70 1007.19 1007.71 1008.21 1008.68 1009.08 1009.41 1009.65 1009.81 1009.91 1009.96 1009.98 1010.00 1010.02 1010.05 1010.11 1010.18
1004.91 1004.80 1004.61 1004.29 1003.84 1003.28 1002.67 1002.06 1001.51 1001.09 1000.85 1000.81 1000.99 1001.36 1001.88 1002.49 1003.13 1003.75 1004.31 1004.77 1005.14 1005.42 1005.64 1005.83 1006.03 1006.26 1006.53 1006.86 1007.22 1007.61 1008.01 1008.37 1008.69 1008.95 1009.13 1009.24 1009.29 1009.29 1009.27 1009.25 1009.23 1009.23 1009.26 1009.32
1004.25 1004.29 1004.26 1004.14 1003.89 1003.55 1003.13 1002.68 1002.28 1001.96 1001.79 1001.79 1001.98 1002.34 1002.85 1003.44 1004.07 1004.68 1005.23 1005.69 1006.05 1006.32 1006.50 1006.64 1006.75 1006.88 1007.04 1007.24 1007.47 1007.74 1008.01 1008.26 1008.48 1008.65 1008.76 1008.80 1008.79 1008.74 1008.66 1008.58 1008.52 1008.48 1008.47 1008.51
1003.52 1003.71 1003.86 1003.94 1003.91 1003.78 1003.56 1003.30 1003.05 1002.86 1002.77 1002.83 1003.04 1003.41 1003.90 1004.49 1005.10 1005.71 1006.26 1006.72 1007.07 1007.32 1007.48 1007.57 1007.62 1007.66 1007.72 1007.80 1007.91 1008.05 1008.20 1008.34 1008.46 1008.53 1008.55 1008.52 1008.44 1008.33 1008.20 1008.06 1007.94 1007.85 1007.81 1007.80
1002.82 1003.15 1003.46 1003.72 1003.89 1003.96 1003.94 1003.86 1003.77 1003.70 1003.72 1003.84 1004.09 1004.47 1004.97 1005.54 1006.15 1006.75 1007.30 1007.75 1008.10 1008.34 1008.48 1008.54 1008.54 1008.51 1008.48 1008.46 1008.47 1008.50 1008.53 1008.57 1008.59 1008.58 1008.52 1008.42 1008.28 1008.10 1007.91 1007.72 1007.55 1007.41 1007.32 1007.27
1002.24 1002.68 1003.12 1003.53 1003.86 1004.10 1004.26 1004.34 1004.40 1004.46 1004.57 1004.76 1005.06 1005.46 1005.96 1006.53 1007.13 1007.72 1008.26 1008.71 1009.05 1009.28 1009.40 1009.44 1009.40 1009.32 1009.23 1009.14 1009.06 1009.00 1008.95 1008.90 1008.83 1008.75 1008.62 1008.46 1008.27 1008.04 1007.80 1007.57 1007.35 1007.17 1007.03 1006.94
1001.90 1002.40 1002.93 1003.44 1003.89 1004.26 1004.55 1004.77 1004.95 1005.12 1005.32 1005.57 1005.91 1006.34 1006.84 1007.40 1007.98 1008.55 1009.07 1009.51 1009.84 1010.06 1010.17 1010.19 1010.13 1010.02 1009.88 1009.74 1009.60 1009.48 1009.36 1009.25 1009.13 1008.99 1008.82 1008.62 1008.39 1008.13 1007.86 1007.60 1007.35 1007.13 1006.96 1006.83
1001.87 1002.40 1002.97 1003.53 1004.05 1004.50 1004.88 1005.20 1005.46 1005.72 1005.98 1006.29 1006.65 1007.09 1007.58 1008.12 1008.68 1009.22 1009.71 1010.12 1010.44 1010.64 1010.74 1010.75 1010.68 1010.55 1010.39 1010.22 1010.05 1009.89 1009.73 1009.58 1009.42 1009.25 1009.06 1008.85 1008.61 1008.34 1008.07 1007.79 1007.53 1007.29 1007.09 1006.91
1002.22 1002.73 1003.30 1003.87 1004.40 1004.89 1005.32 1005.68 1006.00 1006.30 1006.61 1006.94 1007.32 1007.74 1008.21 1008.72 1009.23 1009.73 1010.18 1010.55 1010.84 1011.03 1011.12 1011.12 1011.04 1010.91 1010.75 1010.57 1010.39 1010.21 1010.04 1009.87 1009.71 1009.53 1009.34 1009.14 1008.90 1008.66 1008.39 1008.13 1007.87 1007.62 1007.39 1007.18
1002.94 1003.42 1003.94 1004.48 1004.99 1005.47 1005.90 1006.27 1006.61 1006.93 1007.24 1007.57 1007.94 1008.33 1008.77 1009.22 1009.68 1010.12 1010.52 1010.85 1011.10 1011.27 1011.35 1011.35 1011.28 1011.16 1011.00 1010.83 1010.65 1010.48 1010.31 1010.16 1010.00 1009.83 1009.66 1009.48 1009.27 1009.05 1008.82 1008.57 1008.32 1008.07 1007.82 1007.58
1003.98 1004.40 1004.86 1005.34 1005.81 1006.24 1006.63 1006.99 1007.31 1007.61 1007.91 1008.22 1008.54 1008.90 1009.28 1009.67 1010.07 1010.44 1010.78 1011.07 1011.29 1011.43 1011.50 1011.51 1011.45 1011.35 1011.22 1011.07 1010.91 1010.76 1010.61 1010.47 1010.32 1010.18 1010.04 1009.88 1009.71 1009.53 1009.33 1009.11 1008.87 1008.62 1008.36 1008.07
1005.24 1005.60 1005.99 1006.39 1006.79 1007.16 1007.50 1007.80 1008.08 1008.35 1008.60 1008.87 1009.15 1009.45 1009.77 1010.10 1010.42 1010.74 1011.02 1011.27 1011.46 1011.59 1011.67 1011.68 1011.65 1011.58 1011.48 1011.36 1011.23 1011.10 1010.97 1010.85 1010.73 1010.61 1010.49 1010.36 1010.22 1010.07 1009.90 1009.70 1009.48 1009.23 1008.94 1008.62
1006.61 1006.90 1007.21 1007.53 1007.85 1008.14 1008.41 1008.65 1008.88 1009.09 1009.30 1009.52 1009.74 1009.99 1010.25 1010.51 1010.78 1011.05 1011.29 1011.50 1011.68 1011.81 1011.89 1011.93 1011.93 1011.90 1011.83 1011.74 1011.65 1011.54 1011.43 1011.32 1011.22 1011.11 1011.01 1010.90 1010.79 1010.66 1010.51 1010.33 1010.11 1009.86 1009.55 1009.18
1007.93 1008.16 1008.41 1008.65 1008.88 1009.09 1009.29 1009.47 1009.64 1009.80 1009.96 1010.13 1010.31 1010.50 1010.71 1010.93 1011.16 1011.38 1011.60 1011.80 1011.97 1012.11 1012.22 1012.29 1012.32 1012.32 1012.29 1012.24 1012.17 1012.08 1011.99 1011.89 1011.79 1011.69 1011.59 1011.49 1011.38 1011.26 1011.12 1010.94 1010.73 1010.46 1010.12 1009.72
1009.11 1009.29 1009.46 1009.63 1009.79 1009.93 1010.06 1010.18 1010.30 1010.42 1010.54 1010.67 1010.82 1010.98 1011.16 1011.36 1011.56 1011.77 1011.98 1012.17 1012.36 1012.52 1012.65 1012.75 1012.82 1012.86 1012.86 1012.83 1012.77 1012.69 1012.60 1012.50 1012.39 1012.28 1012.17 1012.06 1011.95 1011.83 1011.68 1011.51 1011.28 1011.00 1010.64 1010.21
1010.06 1010.18 1010.30 1010.41 1010.50 1010.59 1010.67 1010.75 1010.84 1010.93 1011.03 1011.15 1011.29 1011.44 1011.62 1011.80 1012.01 1012.22 1012.43 1012.64 1012.84 1013.02 1013.18 1013.31 1013.40 1013.46 1013.48 1013.46 1013.41 1013.33 1013.22 1013.10 1012.97 1012.84 1012.71 1012.58 1012.46 1012.32 1012.17 1011.98 1011.75 1011.46 1011.08 1010.63
1010.72 1010.81 1010.88 1010.95 1011.00 1011.05 1011.11 1011.17 1011.25 1011.34 1011.45 1011.58 1011.73 1011.90 1012.09 1012.30 1012.51 1012.74 1012.97 1013.19 1013.41 1013.61 1013.78 1013.92 1014.03 1014.10 1014.12 1014.09 1014.03 1013.93 1013.80 1013.65 1013.49 1013.33 1013.18 1013.02 1012.88 1012.72 1012.56 1012.36 1012.13 1011.83 1011.45 1010.98
Thickness
5760 5764 5759 5754 5755 5763 5763 5772 5769 5776 5780 5783 5789 5795 5799 5804 5804 5798 5792 5788 5784 5778 5773 5769 5765 5761 5757 5753 5749 5746 5740 5736 5732 5729 5727 5724 5721 5718 5716 5713 5712 5709 5706 5704
5747 5760 5757 5750 5755 5761 5765 5774 5776 5784 5789 5804 5804 5805 5803 5802 5801 5796 5792 5789 5786 5781 5776 5771 5767 5763 5759 5755 5751 5746 5740 5736 5733 5729 5725 5722 5719 5717 5714 5711 5709 5707 5704 5701
5728 5748 5746 5738 5757 5763 5768 5779 5781 5781 5792 5805 5800 5798 5797 5799 5801 5798 5795 5792 5788 5784 5779 5774 5770 5766 5760 5756 5752 5746 5741 5737 5733 5728 5724 5721 5718 5715 5711 5708 5706 5703 5701 5698
5724 5728 5714 5754 5781 5778 5776 5784 5796 5801 5802 5805 5804 5805 5807 5809 5805 5801 5798 5796 5792 5788 5783 5778 5774 5768 5763 5757 5751 5745 5740 5736 5732 5727 5723 5719 5716 5712 5709 5706 5703 5700 5697 5695
5716 5714 5728 5757 5770 5771 5767 5770 5796 5796 5798 5802 5806 5802 5802 5808 5808 5804 5802 5801 5797 5794 5789 5782 5775 5769 5762 5756 5750 5744 5739 5735 5731 5727 5722 5717 5713 5710 5707 5703 5700 5697 5694 5692
5708 5703 5706 5739 5762 5771 5766 5753 5783 5790 5791 5795 5797 5780 5784 5803 5807 5805 5804 5803 5798 5794 5789 5781 5776 5770 5760 5754 5748 5742 5739 5735 5732 5727 5721 5716 5712 5708 5704 5700 5696 5694 5691 5689
5703 5702 5715 5740 5754 5756 5732 5739 5769 5782 5786 5788 5786 5785 5791 5801 5802 5802 5800 5799 5797 5792 5785 5780 5776 5768 5758 5752 5747 5744 5740 5735 5730 5724 5719 5714 5709 5705 5701 5696 5693 5689 5688 5687
5697 5693 5701 5733 5739 5728 5733 5757 5766 5772 5780 5783 5784 5789 5792 5793 5794 5794 5793 5792 5791 5785 5780 5777 5773 5764 5755 5750 5748 5743 5738 5731 5726 5720 5716 5712 5706 5701 5697 5692 5688 5685 5682 5681
5691 5695 5712 5721 5725 5732 5745 5751 5760 5767 5773 5777 5778 5779 5782 5783 5784 5785 5785 5783 5784 5779 5773 5770 5766 5760 5751 5747 5745 5739 5732 5726 5721 5716 5711 5708 5702 5696 5691 5687 5684 5682 5680 5678
5687 5697 5708 5718 5728 5734 5742 5748 5756 5764 5768 5770 5770 5772 5773 5774 5775 5776 5776 5775 5775 5771 5764 5759 5758 5754 5749 5744 5739 5733 5726 5720 5716 5710 5705 5701 5697 5693 5687 5684 5681 5678 5676 5674
5683 5693 5704 5715 5719 5728 5736 5742 5751 5756 5760 5762 5762 5762 5764 5763 5764 5766 5767 5766 5765 5761 5755 5751 5749 5745 5741 5737 5732 5725 5719 5713 5709 5705 5701 5696 5692 5689 5686 5683 5681 5675 5673 5671
5682 5691 5693 5699 5714 5724 5728 5734 5740 5744 5748 5753 5754 5752 5754 5753 5754 5754 5754 5754 5751 5749 5746 5743 5740 5735 5732 5729 5724 5716 5710 5706 5703 5699 5695 5691 5686 5683 5682 5679 5676 5672 5669 5665
5692 5696 5699 5704 5712 5718 5723 5727 5733 5737 5739 5741 5744 5744 5743 5742 5743 5742 5741 5740 5738 5736 5734 5732 5729 5725 5723 5720 5715 5709 5703 5700 5696 5693 5689 5684 5681 5677 5673 5672 5669 5665 5662 5658
5694 5695 5693 5699 5705 5711 5716 5722 5725 5728 5731 5733 5733 5734 5733 5731 5731 5729 5727 5726 5725 5724 5722 5719 5716 5713 5711 5708 5704 5699 5695 5691 5688 5685 5682 5678 5675 5672 5669 5665 5661 5660 5657 5652
5688 5690 5691 5697 5702 5705 5710 5713 5713 5714 5716 5719 5721 5720 5719 5717 5715 5715 5715 5715 5713 5710 5707 5705 5702 5699 5699 5696 5692 5688 5685 5682 5679 5677 5675 5672 5669 5666 5663 5659 5656 5654 5653 5649
5682 5684 5686 5689 5691 5694 5697 5699 5699 5700 5703 5704 5706 5706 5706 5704 5703 5702 5701 5700 5697 5693 5691 5689 5687 5686 5686 5683 5680 5677 5674 5671 5669 5667 5664 5662 5659 5656 5654 5650 5647 5645 5643 5640
5671 5671 5673 5674 5678 5682 5684 5686 5688 5690 5692 5692 5692 5693 5693 5690 5688 5686 5685 5685 5683 5680 5679 5676 5675 5675 5674 5672 5669 5667 5664 5661 5658 5656 5654 5653 5650 5647 5644 5641 5638 5635 5633 5631
5667 5667 5666 5667 5669 5670 5672 5674 5677 5678 5678 5680 5681 5680 5678 5676 5673 5671 5671 5671 5668 5665 5664 5663 5662 5661 5659 5657 5657 5655 5654 5652 5650 5648 5646 5643 5640 5638 5635 5631 5628 5626 5624 5621
5659 5659 5660 5660 5660 5660 5659 5661 5664 5665 5666 5667 5666 5664 5663 5662 5660 5659 5659 5657 5654 5650 5649 5650 5648 5647 5646 5644 5642 5642 5642 5642 5641 5638 5636 5631 5628 5627 5624 5622 5619 5616 5613 5609
5647 5649 5650 5650 5650 5650 5649 5650 5651 5652 5653 5653 5652 5651 5650 5649 5648 5647 5645 5643 5641 5640 5639 5638 5637 5636 5634 5633 5630 5632 5632 5631 5629 5627 5625 5623 5620 5617 5614 5612 5609 5605 5601 5596
5634 5636 5637 5637 5637 5638 5638 5639 5640 5640 5641 5640 5639 5638 5637 5637 5637 5636 5633 5630 5628 5627 5627 5626 5625 5623 5622 5620 5619 5621 5621 5620 5618 5615 5613 5610 5607 5605 5602 5598 5595 5590 5586 5581
5621 5623 5624 5624 5624 5624 5626 5628 5628 5629 5628 5628 5628 5628 5626 5625 5625 5624 5622 5620 5618 5615 5616 5616 5614 5610 5609 5608 5610 5610 5610 5608 5605 5603 5600 5597 5594 5590 5587 5583 5579 5575 5570 5565
5609 5610 5611 5612 5613 5614 5616 5617 5618 5618 5617 5617 5616 5616 5615 5615 5615 5612 5609 5609 5609 5604 5605 5604 5600 5598 5595 5598 5599 5599 5598 5596 5593 5590 5587 5584 5580 5576 5572 5568 5564 5560 5555 5551
5597 5599 5601 5603 5604 5604 5603 5605 5607 5608 5608 5608 5607 5607 5606 5605 5604 5604 5601 5597 5596 5594 5595 5590 5588 5586 5585 5588 5588 5587 5585 5582 5579 5576 5573 5569 5565 5562 5557 5553 5549 5545 5540 5536
5589 5590 5591 5592 5593 5593 5593 5595 5596 5597 5598 5598 5597 5597 5597 5596 5593 5592 5590 5589 5585 5584 5584 5582 5578 5576 5576 5577 5576 5573 5571 5567 5564 5560 5557 5553 5550 5546 5542 5538 5534 5530 5526 5523
5581 5583 5583 5583 5584 5584 5586 5586 5586 5585 5586 5586 5586 5585 5585 5583 5582 5581 5580 5579 5577 5574 5574 5573 5570 5566 5566 5565 5563 5560 5557 5553 5550 5546 5543 5539 5535 5532 5528 5524 5519 5516 5513 5511
5575 5575 5574 5576 5576 5576 5576 5575 5574 5574 5574 5572 5571 5571 5571 5571 5570 5569 5568 5567 5565 5563 5562 5560 5558 5556 5554 5551 5548 5545 5541 5538 5534 5531 5528 5524 5521 5517 5514 5510 5507 5504 5501 5499